Location: Julian California
(33.0790°N, 116.6010°W)
Time: 10:39:00
(UTC-07:00)

SWIFT - Pass Details

Date: 14 June 2018
Orbit: 546 x 561 km, 20.6° (Epoch: 15 October)

Event Time Altitude Azimuth Distance (km) Brightness Sun altitude
Rises 21:17:38 0° 241° (WSW) 2,697 6.1 -14.8°
Reaches altitude 10° 21:20:49 10° 216° (SW) 1,801 4.9 -15.2°
Enters shadow 21:22:54 14° 185° (S) 1,547 4.3 -15.6°
